EHI
0 0 0 0 0 0 0 0 0 0 0 0 0 0 0 0 0 0 0 0 0 0 0 0 0 0 0 0 0 0 0 0 0 0 0 0 0 0 0 0 0 0 0 0
0 0 0 0 0 0 0 0 0 0 0 0 0 0 0 0 0 0 0 0 0 0 0 0 0 0 0 0 0 0 0 0 0 0 0 0 0 0 0 0 0 0 0 0
0 0 0 0 0 0 0 0 0 0 0 0 0 0 0 0 0 0 0 0 0 0 0 0 0 0 0 0 0 0 0 0 0 0 0 0 0 0 0 0 0 0 0 0
0 0 0 0 0 0 0 0 0 0 0 0 0 0 0 0 0 0 0 0 0 0 0 0 0 0 0 0 0 0 0 0 0 0 0 0 0 0 0 0 0 0 0 0
0 0 0 0 0 0 0 0 0 0 0 0 0 0 0 0 0 0 0 0 0 0 0 0 0 0 0 0 0 0 0 0 0 0 0 0 0 0 0 0 0 0 0 0
0 0 0 0 0 0 0 0 0 0 0 0 0 0 0 0 0 0 0 0 0 0 0 0 0 0 0 0 0 0 0 0 0 0 0 0 0 0 0 0 0 0 0 0
0 0 0 0 0 0 0 0 0 0 0 0 0 0 0 0 0 0 0 0 0 0 0 0 0 0 0 0 0 0 0 0 0 0 0 0 0 0 0 0 0 0 0 0
0 0 0 0 0 0 0 0 0 0 0 0 0 0 0 0 0 0 0 0 0 0 0 0 0 0 0 0 0 0 0 0 0 0 0 0 0 0 0 0 0 0 0 0
0 0 0 0 0 0 0 0 0 0 0 0 0 0 0 0 0 0 0 0 0 0 0 0 0 0 0 0 0 0 0 0 0 0 0 0 0 0 0 0 0 0 0 0
0 0 0 0 0 0 0 0 0 0 0 0 0 0 0 0 0 0 0 0 0 0 0 0 0 0 0 0 0 0 0 0 0 0 0 0 0 0 0 0 0 0 0 0
0 0 0 0 0 0 0 0 0 0 0 0 0 0 0 0 0 0 0 0 0 0 0 0 0 0 0 0 0 0 0 0 0 0 0 0 0 0 0 0 0 0 0 0
0 0 0 0 0 0 0 0 0 0 0 0 0 0 0 0 0 0 0 0 0 0 0 0 0 0 0 0 0 0 0 0 0 0 0 0 0 0 0 0 0 0 0 0
0 0 0 0 0 0 0 0 0 0 0 0 0 0 0 0 0 0 0 0 0 0 0 0 0 0 0 0 0 0 0 0 0 0 0 0 0 0 0 0 0 0 0 0
0 0 0 0 0 0 0 0 0 0 0 0 0 0 0 0 0 0 0 0 0 0 0 0 0 0 0 0 0 0 0 0 0 0 0 0 0 0 0 0 0 0 0 0
0 0 0 0 0 0 0 0 0 0 0 0 0 0 0 0 0 0 0 0 0 0 0 0 0 0 0 0 0 0 0 0 0 0 0 0 0 0 0 0 0 0 0 0
0 0 0 0 0 0 0 0 0 0 0 0 0 0 0 0 0 0 0 0 0 0 0 0 0 0 0 0 0 0 0 0 0 0 0 0 0 0 0 0 0 0 0 0
0 0 0 0 0 0 0 0 0 0 0 0 0 0 0 0 0 0 0 0 0 0 0 0 0 0 0 0 0 0 0 0 0 0 0 0 0 0 0 0 0 0 0 0
0 0 0 0 0 0 0 0 0 0 0 0 0 0 0 0 0 0 0 0 0 0 0 0 0 0 0 0 0 0 0 0 0 0 0 0 0 0 0 0 0 0 0 0
0 0 0 0 0 0 0 0 0 0 0 0 0 0 0 0 0 0 0 0 0 0 0 0 0 0 0 0 0 0 0 0 0 0 0 0 0 0 0 0 0 0 0 0
0 0 0 0 0 0 0 0 0 0 0 0 0 0 0 0 0 0 0 0 0 0 0 0 0 0 0 0 0 0 0 0 0 0 0 0 0 0 0 0 0 0 0 0
0 0 0 0 0 0 0 0 0 0 0 0 0 0 0 0 0 0 0 0 0 0 0 0 0 0 0 0 0 0 0 0 0 0 0 0 0 0 0 0 0 0 0 0
0 0 0 0 0 0 0 0 0 0 0 0 0 0 0 0 0 0 0 0 0 0 0 0 0 0 0 0 0 0 0 0 0 0 0 0 0 0 0 0 0 0 0 0
0 0 0 0 0 0 0 0 0 0 0 0 0 0 0 0 0 0 0 0 0 0 0 0 0 0 0 0 0 0 0 0 0 0 0 0 0 0 0 0 0 0 0 0
0 0 0 0 0 0 0 0 0 0 0 0 0 0 0 0 0 0 0 0 0 0 0 0 0 0 0 0 0 0 0 0 0 0 0 0 0 0 0 0 0 0 0 0
0 0 0 0 0 0 0 0 0 0 0 0 0 0 0 0 0 0 0 0 0 0 0 0 0 0 0 0 0 0 0 0 0 0 0 0 0 0 0 0 0 0 0 0
0 0 0 0 0 0 0 0 0 0 0 0 0 0 0 0 0 0 0 0 0 0 0 0 0 0 0 0 0 0 0 0 0 0 0 0 0 0 0 0 0 0 0 0
0 0 0 0 0 0 0 0 0 0 0 0 0 0 0 0 0 0 0 0 0 0 0 0 0 0 0 0 0 0 0 0 0 0 0 0 0 0 0 0 0 0 0 0
Wind_Speed
5 4 3 3 4 5 6 6 5 4 4 3 1 1 1 2 2 3 3 3 3 3 3 3 3 2 2 2 3 3 3 2 2 1 2 2 1 1 0 0 1 1 2 2
4 4 4 5 5 7 7 7 8 7 6 3 2 2 2 2 2 3 2 3 3 3 3 3 2 2 2 2 3 3 3 2 2 1 1 1 1 0 1 1 1 2 2 2
3 2 2 6 6 6 6 5 6 8 5 1 2 3 2 2 2 2 2 2 2 2 3 2 2 2 2 2 2 3 2 2 2 1 1 1 1 1 1 1 2 2 3 3
2 1 5 4 0 2 4 4 2 2 2 1 2 2 3 3 2 2 3 3 2 2 2 2 2 2 2 2 2 2 2 1 1 1 1 1 1 1 1 1 2 2 3 3
2 3 5 3 1 1 2 3 2 3 2 2 1 3 3 4 4 3 3 2 2 2 2 3 3 2 2 2 2 2 2 1 1 1 1 1 1 2 2 2 2 3 3 3
3 3 3 2 2 2 1 2 2 2 2 2 3 1 1 4 5 5 4 3 3 3 3 3 3 3 3 2 3 2 1 1 1 1 1 1 1 2 2 2 3 3 4 3
4 4 3 2 3 2 2 2 3 3 2 3 2 1 1 3 4 4 4 4 3 3 3 3 3 3 2 2 2 2 2 1 1 1 1 1 1 2 2 2 3 3 4 4
3 4 3 2 2 1 0 1 3 3 3 3 3 3 3 3 3 3 4 4 4 3 3 3 3 3 3 3 3 2 2 2 1 1 1 2 2 2 2 2 3 4 4 4
2 2 1 1 2 2 2 3 3 4 4 3 3 2 2 3 3 3 3 3 3 3 3 3 4 4 3 3 3 3 2 2 2 2 1 1 2 2 2 2 2 3 3 4
1 2 1 2 3 4 4 4 4 4 3 3 2 2 3 3 3 3 4 3 3 3 3 3 3 3 3 3 3 3 2 2 2 2 2 2 2 2 2 2 2 3 4 4
2 2 1 1 3 3 4 4 4 4 4 4 3 3 3 3 3 3 4 3 3 3 3 3 3 3 3 3 3 3 2 2 2 2 2 2 2 2 3 2 2 4 4 4
2 2 1 2 3 2 2 3 3 4 4 4 3 3 3 2 3 3 3 3 3 3 3 3 3 3 3 3 3 3 3 3 2 2 2 2 2 3 5 5 7 8 8 8
2 3 2 2 3 4 3 3 3 3 3 3 3 2 2 2 2 2 3 3 3 3 3 3 3 3 3 4 3 3 2 3 2 2 2 3 3 3 4 6 7 8 9 10
3 3 2 2 3 3 3 3 3 3 3 3 2 3 2 2 2 2 2 2 2 3 3 3 3 3 4 4 3 3 3 4 3 2 2 3 3 3 3 4 5 5 6 9
4 3 1 1 2 2 2 2 2 2 3 3 3 2 2 2 2 2 2 2 2 2 3 3 3 4 4 4 4 3 3 2 2 2 2 3 3 3 3 4 4 5 5 6
3 2 2 1 2 2 2 2 2 2 2 3 3 2 2 2 2 2 2 2 2 2 3 3 3 4 4 4 4 3 3 5 5 3 3 3 3 3 3 4 4 4 4 5
1 1 2 2 2 2 2 2 1 1 2 2 2 2 2 2 2 2 2 2 2 2 3 3 4 4 4 4 3 3 3 4 6 4 3 3 3 3 3 3 4 4 4 6
1 1 1 1 1 2 2 2 2 2 2 2 2 2 2 2 2 3 3 3 3 3 3 3 3 4 4 4 3 3 2 2 2 3 3 3 3 3 3 3 4 5 4 5
2 2 2 2 2 1 1 2 2 2 2 2 1 2 2 2 2 3 3 3 3 4 4 4 7 5 4 5 5 2 2 3 3 3 3 5 4 3 3 3 4 4 4 4
2 2 2 2 2 1 1 2 2 2 2 1 2 2 2 3 3 3 3 3 3 3 4 5 4 4 4 4 5 2 2 3 3 3 3 3 3 3 3 4 4 4 4 4
2 2 2 1 2 2 2 2 1 2 2 2 2 2 3 4 3 3 3 4 4 4 4 7 4 3 3 4 5 3 3 3 3 3 3 3 3 4 4 4 4 4 4 4
1 1 1 1 1 2 2 2 1 2 2 2 2 2 3 4 4 4 4 4 4 7 5 3 3 5 6 6 3 3 3 3 3 3 3 3 3 4 4 4 4 4 4 4
2 2 2 1 1 2 2 2 2 2 2 3 3 3 3 4 3 3 4 3 3 7 5 3 6 9 9 4 3 3 3 3 3 3 3 3 3 4 4 5 4 4 4 4
2 2 2 1 2 2 3 3 3 2 3 3 3 3 3 3 3 3 3 6 8 9 5 6 9 9 8 3 2 3 3 3 3 3 4 4 3 4 4 4 4 4 4 5
1 2 2 1 2 2 2 3 3 3 3 2 3 3 3 2 3 3 3 4 7 8 4 6 9 8 5 3 3 3 3 3 4 4 3 3 4 4 4 4 4 4 4 4
2 2 2 2 2 2 2 2 2 2 2 3 3 2 2 2 3 3 3 4 5 7 5 3 4 5 3 3 3 3 3 4 4 4 4 4 4 4 4 4 5 4 4 4
2 2 1 1 1 1 2 2 2 3 3 3 3 3 3 3 3 3 4 4 4 4 3 3 3 3 3 3 3 3 3 3 3 4 4 4 4 4 4 5 4 4 4 4
Wind_Direction
278 286 266 252 244 222 216 227 234 256 261 260 214 145 127 100 104 91 84 72 65 68 75 83 83 78 82 83 75 79 91 97 107 105 104 100 90 78 48 359 324 319 309 305
267 265 274 277 264 241 235 241 252 265 272 300 338 63 79 77 78 88 84 77 72 65 73 75 75 77 71 76 80 78 77 85 82 83 85 92 89 52 14 335 330 330 315 304
258 274 303 269 242 231 232 235 235 246 259 356 28 36 48 59 61 85 85 81 75 69 74 70 65 62 70 70 84 91 85 72 66 63 58 58 57 18 327 315 318 308 303 303
263 273 236 244 57 208 218 244 266 286 338 41 73 64 53 44 51 57 66 65 68 70 65 60 63 61 62 60 87 92 83 72 63 56 38 26 18 336 309 307 303 293 302 305
231 236 259 272 285 252 219 255 291 291 333 10 36 74 42 35 46 56 63 60 58 67 72 69 61 56 58 49 72 80 61 32 29 72 56 20 350 326 314 312 306 299 300 301
237 238 247 292 330 317 116 276 346 349 357 11 46 81 347 29 36 40 50 56 54 62 61 63 54 51 57 44 48 47 23 354 357 34 50 355 318 307 313 308 299 300 299 297
238 240 261 332 337 18 158 253 7 32 37 47 68 97 70 52 43 45 45 48 56 64 64 61 64 58 45 39 32 12 1 347 360 9 359 336 327 321 320 318 314 306 302 304
217 227 250 5 41 69 302 23 29 36 44 55 64 60 48 52 52 53 46 38 47 57 49 44 56 61 41 21 4 4 357 342 341 345 349 343 334 325 324 320 314 309 309 310
202 216 326 39 34 17 41 36 24 30 32 44 51 52 42 41 48 54 50 46 45 48 43 38 41 47 28 359 356 356 351 344 339 339 347 334 321 313 313 316 311 310 313 312
261 248 345 27 23 22 33 37 32 33 30 37 40 44 44 49 47 44 41 48 41 41 35 27 27 27 15 352 348 348 344 336 331 336 334 331 323 313 311 313 313 315 317 315
269 295 10 21 30 28 33 29 27 29 31 34 47 43 39 39 39 38 35 34 35 39 29 14 15 10 8 357 352 347 339 338 332 332 327 326 326 324 315 307 309 310 304 304
263 320 308 344 15 27 40 25 20 25 25 29 41 41 35 36 40 41 30 26 26 23 16 4 5 1 358 351 349 343 336 331 327 327 322 320 324 331 335 323 325 322 318 313
312 352 1 357 17 24 33 30 25 33 35 25 26 42 45 39 34 38 25 17 12 1 352 349 352 354 348 343 345 344 332 326 322 326 326 322 321 321 320 325 325 323 322 322
12 9 348 5 25 27 31 32 39 41 37 36 31 39 46 38 28 24 15 3 355 352 349 346 351 346 339 339 343 336 326 322 321 318 318 318 317 314 312 314 318 318 321 324
8 6 343 354 23 27 32 40 43 36 33 30 33 37 34 25 11 4 356 349 354 355 346 345 345 336 338 340 337 328 321 318 317 315 313 312 311 311 312 312 311 313 319 324
348 2 8 29 32 25 28 34 39 27 23 19 19 18 14 10 2 354 347 350 352 341 333 331 327 326 334 335 329 320 315 318 320 317 313 312 314 315 315 313 312 314 317 321
332 332 7 15 14 15 16 20 25 16 12 7 5 7 6 2 353 345 341 343 334 321 317 316 316 320 324 323 317 310 310 313 318 318 313 311 308 306 307 309 310 309 311 318
17 12 22 15 359 0 7 14 15 8 355 344 352 357 347 337 323 319 322 326 325 321 320 318 320 325 322 320 314 302 301 304 308 307 307 306 306 306 307 307 308 310 313 318
32 43 48 39 19 7 356 349 346 340 333 334 332 319 315 311 306 309 317 321 320 315 316 320 326 328 316 314 317 302 304 307 309 306 302 305 310 309 308 306 307 309 312 314
33 39 43 33 20 14 349 335 338 336 335 340 334 326 320 315 315 314 310 299 287 284 297 309 314 307 304 303 316 305 304 303 301 301 302 300 301 304 305 306 307 308 311 312
9 15 19 11 1 356 346 341 340 326 327 328 307 296 298 304 306 302 300 299 299 302 307 314 315 304 303 307 313 304 299 296 294 294 297 299 301 303 304 305 307 309 310 311
347 348 345 344 347 338 339 340 324 312 313 311 305 299 299 302 305 300 278 271 287 304 310 299 294 298 306 312 303 296 293 291 290 290 290 292 296 299 301 303 304 306 306 306
332 331 331 338 333 321 323 319 309 299 291 289 287 284 282 285 285 286 295 293 293 303 308 290 295 303 310 313 301 297 295 295 294 291 288 287 289 291 294 297 298 300 301 301
330 334 326 328 335 323 312 310 308 301 289 287 281 274 273 286 293 280 271 293 304 308 304 299 305 310 318 319 306 298 294 291 289 288 289 290 288 288 289 291 293 294 295 299
321 316 310 311 309 296 297 311 314 305 299 293 292 292 284 268 273 289 292 292 301 310 306 305 311 319 324 308 299 294 290 284 282 283 280 286 289 291 291 291 291 293 295 296
316 304 295 288 283 288 296 300 301 303 308 309 309 305 300 292 284 287 292 295 296 307 310 306 307 311 304 296 293 291 288 291 296 294 287 285 284 286 288 290 293 293 294 295
313 308 309 312 308 300 298 296 294 297 298 296 300 302 301 300 298 301 302 303 304 305 303 302 302 297 296 293 290 288 288 287 284 283 283 284 284 282 285 287 289 291 294 295